Location: Fort Worth, Tx
(32.7431°N, 97.3695°W)
Time: 14:59:54
(UTC-04:00)

O/OREOS (USA 219) - Pass Details

Date: 28 March 2023
Orbit: 621 x 646 km, 72.0° (Epoch: 22 May)

Event Time Altitude Azimuth Distance (km) Brightness Sun altitude
Rises 06:26:51 0° 163° (SSE) 2,939 ? -24.6°
Reaches altitude 10° 06:29:40 10° 146° (SE) 2,033 ? -24.1°
Maximum altitude 06:32:52 19° 101° (E) 1,522 ? -23.4°
Drops below altitude 10° 06:36:05 10° 56° (NE) 2,036 ? -22.8°
Sets 06:38:54 0° 39° (NE) 2,945 ? -22.2°
